Home   Weather   Windhoek   Past weeks

Flag for Namibia Past Weather in Windhoek, Namibia — Yesterday and Last 2 Weeks

Now
73 °F

Thunderstorms. Partly sunny.


Feels Like: 76 °F
Forecast: 64 / 75 °F
Wind: 5 mph from Northwest

Location: Windhoek

Current Time: Feb 27, 2017 at 8:54:03 pm

Latest Report: Feb 27, 2017 at 7:00 pm


Visibility: N/A

Pressure: 30.04 "Hg (24.75 "Hg at 1680m altitude)

Humidity: 61%

Dew Point: 59 °F

Location of WindhoekLocation

Past Weather in Windhoek — Graph

°F

Windhoek Temperature Yesterday

Maximum temperature yesterday: 79 °F (at 11:00 am)
Minimum temperature yesterday: 68 °F (at 7:00 am)
Average temperature yesterday: 74 °F

High & Low Weather Summary for the Past Weeks

 TemperatureHumidityPressure
High90 °F (Feb 17, 4:00 pm)100% (Feb 19, 4:00 am)30.21 "Hg (Feb 19, 4:00 am)
Low59 °F (Feb 20, 4:00 am)24% (Feb 24, 3:00 pm)30.01 "Hg (Feb 18, 5:00 pm)
Average70 °F66%30.11 "Hg
* Reported Feb 12 7:00 pm — Feb 27 7:00 pm, Windhoek, Weather by CustomWeather, © 2017

Note: Actual official high and low records may vary slightly from our data, if they occured in-between our weather recording intervals... More about our weather records

Advertising

Windhoek Weather History for the Previous 24 Hours

Scroll right to see more
 ConditionsComfort  
Time TempWeatherWind HumidityBarometerVisibility
7:00 pm
Mon, Feb 27
73 °FThunderstorms. Partly sunny.5 mph61%30.04 "HgN/A
6:00 pm79 °FRain. Scattered clouds.8 mph45%30.01 "HgN/A
5:00 pm81 °FRain. Scattered clouds.12 mph45%30.01 "HgN/A
4:00 pm86 °FScattered clouds.5 mph35%30.01 "HgN/A
3:00 pm84 °FScattered clouds.10 mph37%30.04 "HgN/A
2:00 pm84 °FScattered clouds.13 mph37%30.07 "HgN/A
12:00 pm82 °FPartly sunny.15 mph40%30.12 "HgN/A
11:00 am79 °FScattered clouds.12 mph45%30.12 "HgN/A
10:00 am75 °FScattered clouds.16 mph54%30.12 "HgN/A
8:00 am70 °FPassing clouds.5 mph69%30.09 "HgN/A
7:00 am64 °FPassing clouds.No wind83%30.09 "HgN/A
6:00 am64 °FClear.No wind83%30.09 "Hg10 mi
5:00 am66 °FMild.3 mph73%30.09 "HgN/A
4:00 am68 °FMild.5 mph69%30.09 "HgN/A
3:00 am68 °FMild.3 mph69%30.09 "HgN/A
2:00 am70 °FMild.1 mph64%30.12 "HgN/A
1:00 am68 °FMild.1 mph69%30.12 "HgN/A
12:00 am70 °FMild.2 mph64%30.12 "HgN/A
Weather by CustomWeather, © 2017

See weather overviewHow to use our weather pages